Weather History for Spadeadam Airport, United Kingdom

Change the Weather History Date:

Wednesday, February 6, 2013

  Actual Average Record
Temperature  
Mean Temperature 32 °F -  
Max Temperature 35 °F - - ()
Min Temperature 28 °F - - ()
Degree Days  
Heating Degree Days 32    
Moisture  
Dew Point 28 °F    
Average Humidity 82    
Maximum Humidity 100    
Minimum Humidity 70    
Precipitation  
Precipitation 0.00 in - - ()
Sea Level Pressure  
Sea Level Pressure 29.85 in    
Wind  
Wind Speed 18 mph ()    
Max Wind Speed 30 mph    
Max Gust Speed 45 mph    
Visibility 5.9 miles    
Events Rain , Snow    
T = Trace of Precipitation, MM = Missing Value Source: Averaged Metar Reports

Daily Weather History Graph

Daily Weather History Graph

Search for Another Location

Airport:

Trip Planner

Search our weather history database for the weather conditions in past years. The results will help you decide how hot, cold, wet, or windy it might be!

Date:

Astronomy

Feb. 06, 2013 Rise Set
Actual Time 7:51 AM GMT 4:57 PM GMT
Civil Twilight 7:12 AM GMT 5:37 PM GMT
Nautical Twilight 6:29 AM GMT 6:20 PM GMT
Astronomical Twilight 5:47 AM GMT 7:02 PM GMT
Moon 4:42 AM GMT (2/6) 12:39 PM GMT (2/6)
Length of Visible Light 10h 24m
Length of Day
9h 06m
Waning Crescent, 19% of the Moon is Illuminated
Feb 6
Waning Crescent
Feb 10
New
Feb 17
First Quarter
Feb 25
Full
Mar 4
Last Quarter

Hourly Weather History & Observations

Time (GMT) Temp. Windchill Dew Point Humidity Pressure Visibility Wind Dir Wind Speed Gust Speed Precip Events Conditions
12:50 AM 33.8 °F 20.5 °F 33.8 °F 100% 29.44 in 3.1 mi NNE 27.6 mph - N/A Rain Light Rain
1:50 AM 35.6 °F 23.0 °F 33.8 °F 93% 29.50 in 6.2 mi North 27.6 mph 40.3 mph N/A   Mostly Cloudy
2:50 AM 33.8 °F 20.1 °F 33.8 °F 100% 29.53 in 4.3 mi North 29.9 mph 44.9 mph N/A Rain Light Rain
3:50 AM 33.8 °F 21.0 °F 32.0 °F 93% 29.59 in 4.3 mi North 25.3 mph 43.7 mph N/A Snow Light Snow
4:50 AM 33.8 °F 22.5 °F 30.2 °F 87% 29.65 in 6.2 mi North 19.6 mph 33.4 mph N/A   Mostly Cloudy
5:50 AM 33.8 °F 24.3 °F 28.4 °F 81% 29.71 in 6.2 mi NNW 13.8 mph 25.3 mph N/A   Scattered Clouds
6:50 AM 32.0 °F 20.5 °F 28.4 °F 87% 29.74 in 6.2 mi NNW 18.4 mph - N/A   Unknown
7:50 AM 32.0 °F 20.1 °F 28.4 °F 87% 29.77 in 6.2 mi NNW 19.6 mph - N/A   Unknown
8:50 AM 32.0 °F 19.8 °F 28.4 °F 87% 29.80 in 6.2 mi NNW 20.7 mph - N/A   Partly Cloudy
9:50 AM 33.8 °F 23.2 °F 26.6 °F 75% 29.86 in 6.2 mi NNW 17.3 mph - N/A   Partly Cloudy
10:50 AM 33.8 °F 22.2 °F 26.6 °F 75% 29.86 in 6.2 mi North 20.7 mph - N/A   Partly Cloudy
11:50 AM 35.6 °F 24.0 °F 28.4 °F 75% 29.89 in 6.2 mi NNW 23.0 mph - N/A   Partly Cloudy
12:50 PM 35.6 °F 24.2 °F 28.4 °F 75% 29.92 in 6.2 mi NNW 21.9 mph - N/A   Partly Cloudy
1:50 PM 35.6 °F 25.5 °F 28.4 °F 75% 29.95 in 6.2 mi NNW 17.3 mph - N/A   Mostly Cloudy
2:50 PM 35.6 °F 24.8 °F 26.6 °F 70% 29.95 in 6.2 mi NNW 19.6 mph 31.1 mph N/A   Partly Cloudy
3:50 PM 35.6 °F 25.9 °F 26.6 °F 70% 29.98 in 6.2 mi NNW 16.1 mph - N/A   Scattered Clouds
4:50 PM 33.8 °F 23.2 °F 26.6 °F 75% 29.98 in 6.2 mi NNW 17.3 mph - N/A   Partly Cloudy
5:50 PM 32.0 °F 21.6 °F 26.6 °F 80% 30.01 in 6.2 mi NW 15.0 mph - N/A   Partly Cloudy
6:50 PM 32.0 °F 23.0 °F 26.6 °F 80% 30.01 in 6.2 mi NW 11.5 mph - N/A   Partly Cloudy
7:50 PM 30.2 °F 21.9 °F 26.6 °F 86% 30.04 in 6.2 mi West 9.2 mph - N/A   Scattered Clouds
8:50 PM 33.8 °F 23.2 °F 26.6 °F 75% 30.04 in 6.2 mi NW 17.3 mph - N/A   Mostly Cloudy
9:50 PM 32.0 °F 22.1 °F 24.8 °F 75% 30.04 in 6.2 mi NW 13.8 mph - N/A   Partly Cloudy
10:50 PM 30.2 °F 21.9 °F 23.0 °F 75% 30.06 in 6.2 mi West 9.2 mph - N/A   Unknown
11:50 PM 28.4 °F 20.4 °F 24.8 °F 86% 30.06 in 6.2 mi WNW 8.1 mph - N/A   Unknown